Weather Roundup
Issued by NWS

Home | Current Version | Previous Version | Text Only | Print | Product List | Glossary On
Versions: 1 2 3 4 5 6 7 8 9 10 11 12 13 14 15 16 17 18 19 20 21 22 23 24 25 26 27 28 29 30 31 32 33 34 35 36 37 38 39 40 41 42 43 44 45 46 47 48 49 50
801
NZUS93 KARX 242059
HRRWXR

CURRENT HOURLY OBSERVATIONS ACROSS
MUCH OF THE UPPER MISSISSIPPI VALLEY
NATIONAL WEATHER SERVICE LA CROSSE WI
400 PM CDT SUN SEP 24 2017


...SOUTHEAST MINNESOTA...


CITY           SKY/WX    TMP DP  RH WIND       PRES   REMARKS
ROCHESTER      MOSUNNY   86  62  44 SW13G21   29.93F
ROCHESTER/MAYO MOCLDY    88  58  36 S10       29.92F
WINONA         PTSUNNY   90  61  37 S5        29.92F
AUSTIN         CLOUDY    86  57  37 S14G20    29.91F
ALBERT LEA     SUNNY     90  57  33 S10G20    29.90F
DODGE CENTER   SUNNY     90  55  31 S15       29.92F
PRESTON        MOSUNNY   85  59  40 S9G18     29.94F
OWATONNA       SUNNY     90  61  37 S12G20    29.88F
FARIBAULT      MOSUNNY   88  63  42 S12       29.88F
$$

...ELSEWHERE IN MINNESOTA...


CITY           SKY/WX    TMP DP  RH WIND       PRES   REMARKS
MINNEAPOLIS    PTSUNNY   90  63  40 S17       29.85F HX  91
INTNL FALLS    PTSUNNY   74  66  76 CALM      29.78F
DULUTH         MOSUNNY   78  67  68 S9        29.88F
RED WING       SUNNY     90  55  31 S9        29.87F
REDWOOD FALLS  MOSUNNY   86  62  44 SW17G28   29.81F
MANKATO        MOSUNNY   88  62  41 S13G21    29.85
WORTHINGTON    LGT RAIN  72  64  76 SW8G24    29.90R
FAIRMONT       CLOUDY    87  62  43 S20G26    29.86F
$$

...SOUTHWEST WISCONSIN...


CITY           SKY/WX    TMP DP  RH WIND       PRES   REMARKS
LA CROSSE      SUNNY     93  61  34 S14       29.92F HX  93
PRAIRIE DU CHI NOT AVBL
BOSCOBEL       SUNNY     91  60  35 S7        29.96F HX  90
LONE ROCK      NOT AVBL
PLATTEVILLE    MOSUNNY   88  62  41 S14       30.01F
FORT MC COY    SUNNY     89  59  36 S9        29.97F
MAUSTON-NEW LI CLEAR     89  61  39 S9        29.97F
VIROQUA        FAIR      88  59  37 S9        30.00S
WIS DELLS      SUNNY     89  53  29 S13G18    29.99F
$$

...ELSEWHERE IN WISCONSIN...


CITY           SKY/WX    TMP DP  RH WIND       PRES   REMARKS
MILWAUKEE      MOSUNNY   86  64  47 SE15      30.01F
MADISON        SUNNY     89  58  34 S13       29.99F
GREEN BAY      SUNNY     89  66  46 SW8       29.99F HX  91
EAU CLAIRE     NOT AVBL
BLACK RVR FLS  FAIR      91  53  27 S10G16    29.95F
MEDFORD        SUNNY     85  59  41 S13       29.98F
WAUSAU         MOSUNNY   87  61  41 S13       29.97F
WIS RAPIDS     SUNNY     89  61  38 SW12      29.99F
MARSHFIELD     SUNNY     86  55  34 S17G23    29.98F
RICE LAKE      MOSUNNY   85  61  44 S12G21    29.94F
$$

...NORTHEAST IOWA...


CITY           SKY/WX    TMP DP  RH WIND       PRES   REMARKS
WATERLOO       MOSUNNY   89  61  38 S14       29.92F
DUBUQUE        SUNNY     86  63  45 S9        30.00F
DECORAH        CLOUDY    90  63  40 S15       29.94F HX  90
MASON CITY     CLOUDY    89  60  37 S14       29.92F
CHARLES CITY   SUNNY     88  61  40 S10G18    29.93F
OELWEIN        MOSUNNY   88  61  40 S13G18    29.95F
$$

...ELSEWHERE IN IOWA...


CITY           SKY/WX    TMP DP  RH WIND       PRES   REMARKS
DES MOINES     MOSUNNY   91  62  37 SE15      29.91F HX  91
IOWA CITY      MOSUNNY   90  64  42 S10       29.97F HX  91
FORT DODGE     MOSUNNY   90  61  37 S18       29.89F HX  90
MARSHALLTOWN   SUNNY     90  62  39 S17       29.92F HX  90
CEDAR RAPIDS   SUNNY     90  62  39 S14G20    29.95F HX  90
$$

...NORTHERN ILLINOIS...


CITY           SKY/WX    TMP DP  RH WIND       PRES   REMARKS
CHICAGO-OHARE  MOSUNNY   92  58  31 S8        30.00F HX  91
CHICAGO-MIDWAY MOSUNNY   91  58  32 SE8       30.00F HX  90
MOLINE         MOSUNNY   89  61  38 S9        29.96F
ROCKFORD       MOSUNNY   89  58  34 S12       30.01F
PEORIA         MOSUNNY   90  61  37 E7        29.98F HX  90
$$

NOTE: "FAIR" INDICATES FEW OR NO CLOUDS BELOW 12,000 FEET WITH NO
SIGNIFICANT WEATHER AND/OR OBSTRUCTIONS TO VISIBILITY. WIND
SPEEDS ARE IN MILES-PER-HOUR.




USA.gov is the U.S. government's official web portal to all federal, state and local government web resources and services.